[Iaude] MPEC H21: 2024 GQ6 [a=2.78,e=0.75,i=10.7,H=20.1,PHA]
    mpec at cfa.harvard.edu 
    mpec at cfa.harvard.edu
       
    Wed Apr 17 20:49:01 EDT 2024
    
    
  
M.P.E.C. 2024-H21                                Issued 2024 April 18, 00:47 UT
     The Minor Planet Electronic Circulars contain information on unusual
         minor planets, routine data on comets and natural satellites,
         and occasional editorial announcements.  They are published
    on behalf of Division F of the International Astronomical Union by the
          Minor Planet Center, Smithsonian Astrophysical Observatory,
                          Cambridge, MA 02138, U.S.A.
			  
             Prepared using the Tamkin Foundation Computer Network
                              MPC at CFA.HARVARD.EDU
            URL https://www.minorplanetcenter.net/    ISSN 1523-6714
                                    2024 GQ6                                    
Observations:
     K24G06Q  C2024 03 16.54643614 07 18.381-09 40 24.89         21.72GVEH021F51
     K24G06Q  C2024 03 16.55775314 07 18.492-09 40 17.81         21.62GVEH021F51
     K24G06Q*1C2024 04 07.36851614 03 34.506-03 02 52.04         20.05GVEH021G96
     K24G06Q 1C2024 04 07.37365514 03 34.254-03 02 42.86         20.03GVEH021G96
     K24G06Q 1C2024 04 07.37879114 03 34.006-03 02 33.90         20.17GVEH021G96
     K24G06Q 1C2024 04 07.38391714 03 33.772-03 02 24.36               VEH021G96
     K24G06Q  C2024 04 17.55598513 53 31.016+03 21 22.92         19.47wXEH021F51
     K24G06Q  C2024 04 17.56698713 53 30.058+03 21 54.11         19.55wXEH021F51
     K24G06Q  C2024 04 17.57804513 53 29.103+03 22 25.44         19.54wXEH021F51
     K24G06Q KB2024 04 17.82937613 53 10.69 +03 34 15.1          19.6 GXEH021958
     K24G06Q KB2024 04 17.83357013 53 10.28 +03 34 28.7          19.4 GXEH021958
     K24G06Q KB2024 04 17.83781513 53 10.01 +03 34 39.7          19.5 GXEH021958
     K24G06Q KB2024 04 17.84705713 53 09.23 +03 35 06.7          18.9 GXEH021958
     K24G06Q KB2024 04 17.85495013 53 08.51 +03 35 28.8          19.0 GXEH021958
     K24G06Q KC2024 04 17.93666413 53 01.34 +03 39 24.7          19.1 GXEH021I93
     K24G06Q KC2024 04 17.94043813 53 00.98 +03 39 35.9          20.0 GXEH021I93
     K24G06Q KC2024 04 17.94483613 53 00.61 +03 39 49.0          19.1 GXEH021I93
Observer details:
958 Observatoire de Dax.  Observer P. Dupouy.  0.50-m f/4.5 Reflector + CMO.
F51 Pan-STARRS 1, Haleakala.  Observers J. Herman, T. Lowe, P. Minguez, A.
    Schultz, I. Smith.  Measurers K. Chambers, T. de Boer, J. Fairlamb, H.
    Gao, M. Huber, C.-C. Lin, E. Magnier, Y. Ramanjooloo, R. Wainscoat, R.
    Weryk.  1.8-m Ritchey-Chretien + CCD.
G96 Mt. Lemmon Survey.  Observer H. Groeller.  Measurers T. Beuden, V. F.
    Carvajal, D. Fay, J. B. Fazekas, D. C. Fuls, A. R. Gibbs, A. D. Grauer, H.
    Groeller, J. K. Hogan, R. A. Kowalski, S. M. Larson, G. J. Leonard, D.
    Rankin, R. L. Seaman, F. C. Shelly, K. W. Wierzchos.  1.5-m reflector +
    10K CCD.
I93 St Pardon de Conques.  Observer F. Losse.  0.40-m f/3.7 reflector + CCD.
Orbital elements:
2024 GQ6                                            PHA, Earth MOID = 0.0494 AU
Epoch 2024 Mar. 31.0 TT = JDT 2460400.5                 Bell                    
M 340.05185              (2000.0)            P               Q                  
n   0.21221077     Peri.  122.46582     +0.61110128     +0.79136576             
a   2.7837128      Node   185.30191     -0.77424614     +0.59308336             
e   0.7528351      Incl.   10.72052     -0.16461512     +0.14829820             
P   4.64           H   20.18          G   0.15           U   6                  
Residuals in seconds of arc
240316 F51  0.0   0.2-    240417 F51  0.0   0.0     240417 958  1.0+  0.1-
240316 F51  0.0   0.2+    240417 F51  0.0   0.0     240417 958  0.4+  0.7-
240407 G96  0.3+  0.1-    240417 F51  0.0   0.0     240417 I93  0.1+  0.4-
240407 G96  0.0   0.0     240417 958  0.3+  0.7-    240417 I93  0.3-  0.2-
240407 G96  0.2-  0.2-    240417 958  0.5-  0.8+    240417 I93  0.0   0.2+
240407 G96  0.1-  0.3+    240417 958  0.9+  0.4-
Ephemeris:
2024 GQ6                 a,e,i = 2.78, 0.75, 11                  q = 0.6880
Date    TT    R. A. (2000) Decl.     Delta      r    Elong.  Phase     V
2024 03 19    14 07 46.5 -09 14 15   0.8136  1.7283   145.4    19.1    21.9
...
2024 04 03    14 05 58.7 -04 59 08   0.5835  1.5630   160.9    12.1    20.7
...
2024 04 11    14 00 46.2 -01 06 03   0.4780  1.4722   167.3     8.6    20.0
...
2024 04 17    13 54 16.1 +02 55 30   0.4077  1.4031   166.2     9.8    19.6
2024 04 18    13 52 55.7 +03 42 41   0.3967  1.3915   165.3    10.5    19.6
2024 04 19    13 51 30.5 +04 32 05   0.3860  1.3799   164.3    11.4    19.5
...
2024 04 25    13 41 03.1 +10 21 33   0.3265  1.3098   155.4    18.7    19.3
...
2024 05 03    13 20 07.1 +21 02 18   0.2614  1.2157   138.3    33.5    19.1
...
2024 05 18    11 47 23.2 +51 06 11   0.1943  1.0399    93.0    76.2    19.4
M. P. C. Staff               (C) Copyright 2024 MPC           M.P.E.C. 2024-H21
    
    
More information about the Iaude
mailing list